Location: Sankt Anna
(58.3452°N, 16.7040°E)
Time: 05:37:27
(UTC+02:00)

DX 1 - Pass Details

Date: 03 June 2019
Orbit: 619 x 631 km, 98.4° (Epoch: 25 June)

Event Time Altitude Azimuth Distance (km) Brightness Sun altitude
Rises 02:36:44 0° 132° (SE) 2,916 ? -6.5°
Reaches altitude 10° 02:39:04 10° 124° (ESE) 2,013 ? -6.3°
Maximum altitude 02:43:01 34° 59° (ENE) 1,048 ? -6.1°
Drops below altitude 10° 02:46:59 10° 355° (N) 2,028 ? -5.9°
Sets 02:49:20 0° 347° (NNW) 2,941 ? -5.8°
